This is the latest recevied weather packets stored in our database for station/object SQ9IDT-13. If no packets are shown the sender has not sent any weather packets the latest 10 day(s).
| Time | Temp. | Humidity | Pressure | Rain* | Wind** | Luminosity | Snow |
|---|---|---|---|---|---|---|---|
| 1777756028 | 10.56° C | 39% | 987.6 hPa | - | - | - | - |
| 1777752427 | 11.67° C | 37% | 987.8 hPa | - | - | - | - |
| 1777748825 | 14.44° C | 35% | 987.9 hPa | - | - | - | - |
| 1777745224 | 17.78° C | 32% | 987.5 hPa | - | - | - | - |
| 1777741622 | 21.67° C | 29% | 987.3 hPa | - | - | - | - |
| 1777738021 | 25.56° C | 28% | 987.5 hPa | - | - | - | - |
| 1777734428 | 23.33° C | 28% | 988.1 hPa | - | - | - | - |
| 1777727224 | 27.22° C | 26% | 989 hPa | - | - | - | - |
| 1777723623 | 27.78° C | 28% | 989.9 hPa | - | - | - | - |
| 1777720021 | 27.22° C | 29% | 990.6 hPa | - | - | - | - |
| 1777716419 | 26.11° C | 33% | 991.2 hPa | - | - | - | - |
| 1777712827 | 26.67° C | 36% | 991.7 hPa | - | - | - | - |
| 1777709225 | 26.67° C | 40% | 991.9 hPa | - | - | - | - |
| 1777702021 | 19.44° C | 50% | 992.2 hPa | - | - | - | - |
| 1777698420 | 10.56° C | 47% | 992.2 hPa | - | - | - | - |
| 1777694818 | 4.44° C | 49% | 992.2 hPa | - | - | - | - |
| 1777691226 | 3.89° C | 48% | 992.1 hPa | - | - | - | - |
| 1777687626 | 4.44° C | 47% | 992 hPa | - | - | - | - |
| 1777684023 | 5° C | 46% | 992.1 hPa | - | - | - | - |
| 1777680420 | 6.11° C | 45% | 992.1 hPa | - | - | - | - |
| 1777676819 | 6.67° C | 44% | 992.2 hPa | - | - | - | - |
| 1777673217 | 7.78° C | 43% | 992.4 hPa | - | - | - | - |
| 1777669624 | 8.89° C | 42% | 992.3 hPa | - | - | - | - |
| 1777666023 | 10.56° C | 40% | 992.1 hPa | - | - | - | - |
| 1777662421 | 12.22° C | 39% | 991.9 hPa | - | - | - | - |
* Rain since midnight (hover to see other rain measurements)
** Current wind speed in m/s (hover to see current wind gust speed)